Weather History for Montague, CA

Change the Weather History Date:

Tuesday, December 18, 2012

  Actual Average Record
Temperature  
Mean Temperature 29 °F 35 °F  
Max Temperature 37 °F 44 °F 53 °F (1976)
Min Temperature 20 °F 26 °F 13 °F (1965)
Degree Days  
Heating Degree Days 36 30  
Month to date heating degree days 519 538  
Since 1 July heating degree days 1504 1844  
Cooling Degree Days 0 0  
Month to date cooling degree days 0 0  
Year to date cooling degree days 622 544  
Moisture  
Dew Point 24 °F    
Average Humidity 81    
Maximum Humidity 88    
Minimum Humidity 56    
Precipitation  
Precipitation 0.01 in 0.10 in 1.16 in (1967)
Month to date precipitation 2.19 1.53  
Year to date precipitation 12.13 17.34  
Sea Level Pressure  
Sea Level Pressure 30.11 in    
Wind  
Wind Speed 3 mph (NE)    
Max Wind Speed 20 mph    
Max Gust Speed 23 mph    
Visibility 7 miles    
Events Snow    
T = Trace of Precipitation, MM = Missing Value Source: NWS Daily Summary

Daily Weather History Graph

Daily Weather History Graph

Search for Another Location

Airport:

Trip Planner

Search our weather history database for the weather conditions in past years. The results will help you decide how hot, cold, wet, or windy it might be!

Date:

Astronomy

Dec. 18, 2012 Rise Set
Actual Time 7:32 AM PST 4:41 PM PST
Civil Twilight 7:00 AM PST 5:12 PM PST
Nautical Twilight 6:25 AM PST 5:47 PM PST
Astronomical Twilight 5:51 AM PST 6:21 PM PST
Moon 11:10 AM PST (12/18) 11:18 PM PST (12/18)
Length of Visible Light 10h 11m
Length of Day
9h 08m
Waxing Crescent, 36% of the Moon is Illuminated
Dec 18
Waxing Crescent
Dec 19
First Quarter
Dec 28
Full
Jan 4
Last Quarter
Jan 11
New

Hourly Weather History & Observations

Time (PST) Temp. Windchill Dew Point Humidity Pressure Visibility Wind Dir Wind Speed Gust Speed Precip Events Conditions
12:53 AM 25.0 °F 19.3 °F 21.0 °F 85% 30.09 in 10.0 mi ESE 4.6 mph - N/A   Mostly Cloudy
1:53 AM 26.1 °F - 23.0 °F 88% 30.08 in 10.0 mi Calm Calm - N/A   Overcast
2:53 AM 27.0 °F - 23.0 °F 85% 30.08 in 10.0 mi Calm Calm - N/A   Overcast
3:53 AM 27.0 °F - 23.0 °F 85% 30.08 in 10.0 mi Calm Calm - N/A   Mostly Cloudy
4:53 AM 25.0 °F 19.3 °F 21.0 °F 85% 30.07 in 10.0 mi WNW 4.6 mph - N/A   Clear
5:53 AM 23.0 °F 18.4 °F 19.9 °F 88% 30.09 in 10.0 mi South 3.5 mph - N/A   Clear
6:53 AM 23.0 °F - 19.0 °F 85% 30.10 in 10.0 mi Calm Calm - N/A   Clear
7:53 AM 25.0 °F - 21.9 °F 88% 30.11 in 10.0 mi Calm Calm - N/A   Mostly Cloudy
8:53 AM 28.0 °F - 25.0 °F 88% 30.12 in 10.0 mi Calm Calm - N/A   Mostly Cloudy
9:53 AM 28.9 °F - 25.0 °F 85% 30.14 in 10.0 mi Calm Calm - N/A   Clear
10:53 AM 33.1 °F 30.0 °F 24.1 °F 70% 30.14 in 10.0 mi ESE 3.5 mph - N/A   Clear
11:53 AM 34.0 °F 31.0 °F 23.0 °F 64% 30.12 in 10.0 mi SW 3.5 mph - N/A   Mostly Cloudy
12:53 PM 34.0 °F - 21.9 °F 61% 30.12 in 10.0 mi Calm Calm - N/A   Scattered Clouds
1:53 PM 36.0 °F 30.3 °F 21.9 °F 57% 30.10 in 10.0 mi West 6.9 mph - N/A   Mostly Cloudy
2:35 PM 32.0 °F 23.6 °F 24.8 °F 75% 30.03 in 1.2 mi NNW 10.4 mph - 0.00 in Snow Light Snow
2:47 PM 33.8 °F 27.0 °F 24.8 °F 70% 30.03 in 3.0 mi North 8.1 mph - 0.00 in Snow Light Snow
2:53 PM 33.1 °F 26.9 °F 26.1 °F 75% 30.12 in 9.0 mi NNE 6.9 mph - 0.00 in   Overcast
3:11 PM 33.8 °F 27.0 °F 26.6 °F 75% 30.04 in 5.0 mi NE 8.1 mph - 0.00 in Snow Light Snow
3:20 PM 33.8 °F 25.8 °F 24.8 °F 70% 30.05 in 2.5 mi NNE 10.4 mph - 0.00 in Snow Light Snow
3:29 PM 30.2 °F 20.8 °F 26.6 °F 86% 30.05 in 1.0 mi NE 11.5 mph - 0.00 in Snow Light Snow
3:43 PM 30.2 °F 23.4 °F 26.6 °F 86% 30.05 in 0.8 mi ENE 6.9 mph - 0.01 in Snow Light Snow
3:49 PM 30.2 °F 24.3 °F 26.6 °F 86% 30.05 in 2.0 mi ENE 5.8 mph - 0.01 in Snow Light Snow
3:50 PM 30.9 °F 24.3 °F 26.1 °F 82% 30.14 in 2.5 mi East 6.9 mph - 0.01 in Snow Light Snow
3:53 PM 30.2 °F 24.3 °F 26.6 °F 86% 30.05 in 5.0 mi East 5.8 mph - 0.00 in Snow Light Snow
4:53 PM 32.0 °F 28.7 °F 25.0 °F 75% 30.15 in 10.0 mi NNW 3.5 mph - 0.00 in   Overcast
5:13 PM 30.2 °F 26.7 °F 24.8 °F 80% 30.06 in 5.0 mi North 3.5 mph - 0.00 in Snow Light Snow
5:28 PM 30.2 °F 25.4 °F 26.6 °F 86% 30.07 in 1.8 mi North 4.6 mph - 0.00 in Snow Light Snow
5:36 PM 30.2 °F 26.7 °F 24.8 °F 80% 30.07 in 2.0 mi North 3.5 mph - 0.00 in Snow Light Snow
5:41 PM 30.2 °F - 26.6 °F 86% 30.07 in 4.0 mi Calm Calm - 0.00 in Snow Light Snow
5:53 PM 30.0 °F 25.2 °F 26.1 °F 85% 30.17 in 9.0 mi North 4.6 mph - 0.00 in   Overcast
6:53 PM 30.0 °F - 25.0 °F 82% 30.19 in 10.0 mi Calm Calm - 0.00 in   Scattered Clouds
7:53 PM 26.1 °F 21.9 °F 21.9 °F 84% 30.21 in 10.0 mi SSE 3.5 mph - N/A   Scattered Clouds
8:53 PM 25.0 °F 19.3 °F 21.9 °F 88% 30.22 in 10.0 mi SW 4.6 mph - N/A   Scattered Clouds
9:53 PM 24.1 °F - 19.0 °F 81% 30.22 in 10.0 mi Calm Calm - N/A   Scattered Clouds
10:53 PM 23.0 °F 17.0 °F 19.9 °F 88% 30.23 in 10.0 mi SW 4.6 mph - N/A   Clear
11:53 PM 21.0 °F 16.2 °F 18.0 °F 88% 30.23 in 10.0 mi ESE 3.5 mph - N/A   Clear